Year,Month,Day,Hour,Minute,Value (Times are PST for temperature in C)
2014,04,02,00,00,4.40
2014,04,02,00,01,4.40
2014,04,02,00,02,4.30
2014,04,02,00,03,4.30
2014,04,02,00,04,4.30
2014,04,02,00,05,4.30
2014,04,02,00,06,4.30
2014,04,02,00,07,4.30
2014,04,02,00,08,4.30
2014,04,02,00,09,4.30
2014,04,02,00,10,4.30
2014,04,02,00,11,4.20
2014,04,02,00,12,4.20
2014,04,02,00,13,4.20
2014,04,02,00,14,4.20
2014,04,02,00,15,4.20
2014,04,02,00,16,4.10
2014,04,02,00,17,4.10
2014,04,02,00,18,4.10
2014,04,02,00,19,4.10
2014,04,02,00,20,4.10
2014,04,02,00,21,4.10
2014,04,02,00,22,4.10
2014,04,02,00,23,4.10
2014,04,02,00,24,4.20
2014,04,02,00,25,4.20
2014,04,02,00,26,4.20
2014,04,02,00,27,4.10
2014,04,02,00,28,4.10
2014,04,02,00,29,4.10
2014,04,02,00,30,4.20
2014,04,02,00,31,4.20
2014,04,02,00,32,4.20
2014,04,02,00,33,4.20
2014,04,02,00,34,4.20
2014,04,02,00,35,4.20
2014,04,02,00,36,4.20
2014,04,02,00,37,4.20
2014,04,02,00,38,4.10
2014,04,02,00,39,4.10
2014,04,02,00,40,4.10
2014,04,02,00,41,4.00
2014,04,02,00,42,4.00
2014,04,02,00,43,4.00
2014,04,02,00,44,4.00
2014,04,02,00,45,3.90
2014,04,02,00,46,3.90
2014,04,02,00,47,3.90
2014,04,02,00,48,4.00
2014,04,02,00,49,4.00
2014,04,02,00,50,4.10
2014,04,02,00,51,4.10
2014,04,02,00,52,4.20
2014,04,02,00,53,4.30
2014,04,02,00,54,4.40
2014,04,02,00,55,4.60
2014,04,02,00,56,4.80
2014,04,02,00,57,5.00
2014,04,02,00,58,5.20
2014,04,02,00,59,5.50
2014,04,02,01,00,5.70
2014,04,02,01,01,5.90
2014,04,02,01,02,6.10
2014,04,02,01,03,6.30
2014,04,02,01,04,6.50
2014,04,02,01,05,6.70
2014,04,02,01,06,6.80
2014,04,02,01,07,7.00
2014,04,02,01,08,7.20
2014,04,02,01,09,7.40
2014,04,02,01,10,7.50
2014,04,02,01,11,7.70
2014,04,02,01,12,7.70
2014,04,02,01,13,7.80
2014,04,02,01,14,7.80
2014,04,02,01,15,7.80
2014,04,02,01,16,7.80
2014,04,02,01,17,7.90
2014,04,02,01,18,8.00
2014,04,02,01,19,8.10
2014,04,02,01,20,8.20
2014,04,02,01,21,8.30
2014,04,02,01,22,8.30
2014,04,02,01,23,8.30
2014,04,02,01,24,8.30
2014,04,02,01,25,8.30
2014,04,02,01,26,8.20
2014,04,02,01,27,8.20
2014,04,02,01,28,8.20
2014,04,02,01,29,8.10
2014,04,02,01,30,8.10
2014,04,02,01,31,8.10
2014,04,02,01,32,8.10
2014,04,02,01,33,8.10
2014,04,02,01,34,8.10
2014,04,02,01,35,8.10
2014,04,02,01,36,8.10
2014,04,02,01,37,8.20
2014,04,02,01,38,8.20
2014,04,02,01,39,8.20
2014,04,02,01,40,8.20
2014,04,02,01,41,8.30
2014,04,02,01,42,8.30
2014,04,02,01,43,8.30
2014,04,02,01,44,8.20
2014,04,02,01,45,8.20
2014,04,02,01,46,8.10
2014,04,02,01,47,8.10
2014,04,02,01,48,8.00
2014,04,02,01,49,8.00
2014,04,02,01,50,7.90
2014,04,02,01,51,7.80
2014,04,02,01,52,7.80
2014,04,02,01,53,7.70
2014,04,02,01,54,7.70
2014,04,02,01,55,7.70
2014,04,02,01,56,7.60
2014,04,02,01,57,7.60
2014,04,02,01,58,7.60
2014,04,02,01,59,7.60
2014,04,02,02,00,7.60
2014,04,02,02,01,7.60
2014,04,02,02,02,7.50
2014,04,02,02,03,7.50
2014,04,02,02,04,7.40
2014,04,02,02,05,7.30
2014,04,02,02,06,7.20
2014,04,02,02,07,7.20
2014,04,02,02,08,7.20
2014,04,02,02,09,7.20
2014,04,02,02,10,7.20
2014,04,02,02,11,7.30
2014,04,02,02,12,7.40
2014,04,02,02,13,7.50
2014,04,02,02,14,7.70
2014,04,02,02,15,7.80
2014,04,02,02,16,7.90
2014,04,02,02,17,8.00
2014,04,02,02,18,8.20
2014,04,02,02,19,8.30
2014,04,02,02,20,8.30
2014,04,02,02,21,8.40
2014,04,02,02,22,8.50
2014,04,02,02,23,8.50
2014,04,02,02,24,8.60
2014,04,02,02,25,8.70
2014,04,02,02,26,8.70
2014,04,02,02,27,8.80
2014,04,02,02,28,8.80
2014,04,02,02,29,8.90
2014,04,02,02,30,8.90
2014,04,02,02,31,8.90
2014,04,02,02,32,8.90
2014,04,02,02,33,9.00
2014,04,02,02,34,9.00
2014,04,02,02,35,9.00
2014,04,02,02,36,9.00
2014,04,02,02,37,9.00
2014,04,02,02,38,9.00
2014,04,02,02,39,9.10
2014,04,02,02,40,9.10
2014,04,02,02,41,9.10
2014,04,02,02,42,9.10
2014,04,02,02,43,9.10
2014,04,02,02,44,9.20
2014,04,02,02,45,9.20
2014,04,02,02,46,9.20
2014,04,02,02,47,9.20
2014,04,02,02,48,9.20
2014,04,02,02,49,9.20
2014,04,02,02,50,9.20
2014,04,02,02,51,9.20
2014,04,02,02,52,9.20
2014,04,02,02,53,9.20
2014,04,02,02,54,9.20
2014,04,02,02,55,9.20
2014,04,02,02,56,9.10
2014,04,02,02,57,9.20
2014,04,02,02,58,9.10
2014,04,02,02,59,9.10
2014,04,02,03,00,9.00
2014,04,02,03,01,8.90
2014,04,02,03,02,8.80
2014,04,02,03,03,8.80
2014,04,02,03,04,8.70
2014,04,02,03,05,8.60
2014,04,02,03,06,8.60
2014,04,02,03,07,8.60
2014,04,02,03,08,8.50
2014,04,02,03,09,8.40
2014,04,02,03,10,8.40
2014,04,02,03,11,8.30
2014,04,02,03,12,8.30
2014,04,02,03,13,8.20
2014,04,02,03,14,8.20
2014,04,02,03,15,8.10
2014,04,02,03,16,8.10
2014,04,02,03,17,8.10
2014,04,02,03,18,8.00
2014,04,02,03,19,8.00
2014,04,02,03,20,8.00
2014,04,02,03,21,7.90
2014,04,02,03,22,7.90
2014,04,02,03,23,7.90
2014,04,02,03,24,7.90
2014,04,02,03,25,7.90
2014,04,02,03,26,7.90
2014,04,02,03,27,7.90
2014,04,02,03,28,7.80
2014,04,02,03,29,7.80
2014,04,02,03,30,7.80
2014,04,02,03,31,7.90
2014,04,02,03,32,7.90
2014,04,02,03,33,7.90
2014,04,02,03,34,7.90
2014,04,02,03,35,7.90
2014,04,02,03,36,7.90
2014,04,02,03,37,7.90
2014,04,02,03,38,7.90
2014,04,02,03,39,8.00
2014,04,02,03,40,8.00
2014,04,02,03,41,8.00
2014,04,02,03,42,8.00
2014,04,02,03,43,8.00
2014,04,02,03,44,8.00
2014,04,02,03,45,8.00
2014,04,02,03,46,8.00
2014,04,02,03,47,8.00
2014,04,02,03,48,8.00
2014,04,02,03,49,8.00
2014,04,02,03,50,7.90
2014,04,02,03,51,7.90
2014,04,02,03,52,7.90
2014,04,02,03,53,7.90
2014,04,02,03,54,7.90
2014,04,02,03,55,7.90
2014,04,02,03,56,7.90
2014,04,02,03,57,7.90
2014,04,02,03,58,7.90
2014,04,02,03,59,7.80
2014,04,02,04,00,7.80
2014,04,02,04,01,7.80
2014,04,02,04,02,7.80
2014,04,02,04,03,7.80
2014,04,02,04,04,7.70
2014,04,02,04,05,7.70
2014,04,02,04,06,7.70
2014,04,02,04,07,7.70
2014,04,02,04,08,7.60
2014,04,02,04,09,7.60
2014,04,02,04,10,7.60
2014,04,02,04,11,7.60
2014,04,02,04,12,7.50
2014,04,02,04,13,7.50
2014,04,02,04,14,7.50
2014,04,02,04,15,7.50
2014,04,02,04,16,7.50
2014,04,02,04,17,7.50
2014,04,02,04,18,7.50
2014,04,02,04,19,7.40
2014,04,02,04,20,7.40
2014,04,02,04,21,7.40
2014,04,02,04,22,7.40
2014,04,02,04,23,7.40
2014,04,02,04,24,7.40
2014,04,02,04,25,7.40
2014,04,02,04,26,7.40
2014,04,02,04,27,7.40
2014,04,02,04,28,7.40
2014,04,02,04,29,7.40
2014,04,02,04,30,7.40
2014,04,02,04,31,7.30
2014,04,02,04,32,7.30
2014,04,02,04,33,7.30
2014,04,02,04,34,7.30
2014,04,02,04,35,7.30
2014,04,02,04,36,7.30
2014,04,02,04,37,7.20
2014,04,02,04,38,7.20
2014,04,02,04,39,7.20
2014,04,02,04,40,7.20
2014,04,02,04,41,7.20
2014,04,02,04,42,7.20
2014,04,02,04,43,7.10
2014,04,02,04,44,7.10
2014,04,02,04,45,7.10
2014,04,02,04,46,7.20
2014,04,02,04,47,7.10
2014,04,02,04,48,7.10
2014,04,02,04,49,7.10
2014,04,02,04,50,7.10
2014,04,02,04,51,7.10
2014,04,02,04,52,7.10
2014,04,02,04,53,7.10
2014,04,02,04,54,7.10
2014,04,02,04,55,7.10
2014,04,02,04,56,7.10
2014,04,02,04,57,7.10
2014,04,02,04,58,7.10
2014,04,02,04,59,7.10
2014,04,02,05,00,7.10
2014,04,02,05,01,7.00
2014,04,02,05,02,7.00
2014,04,02,05,03,6.90
2014,04,02,05,04,6.80
2014,04,02,05,05,6.80
2014,04,02,05,06,6.80
2014,04,02,05,07,6.70
2014,04,02,05,08,6.70
2014,04,02,05,09,6.70
2014,04,02,05,10,6.70
2014,04,02,05,11,6.70
2014,04,02,05,12,6.70
2014,04,02,05,13,6.70
2014,04,02,05,14,6.60
2014,04,02,05,15,6.60
2014,04,02,05,16,6.60
2014,04,02,05,17,6.50
2014,04,02,05,18,6.50
2014,04,02,05,19,6.50
2014,04,02,05,20,6.50
2014,04,02,05,21,6.50
2014,04,02,05,22,6.40
2014,04,02,05,23,6.40
2014,04,02,05,24,6.40
2014,04,02,05,25,6.40
2014,04,02,05,26,6.40
2014,04,02,05,27,6.40
2014,04,02,05,28,6.40
2014,04,02,05,29,6.40
2014,04,02,05,30,6.40
2014,04,02,05,31,6.40
2014,04,02,05,32,6.40
2014,04,02,05,33,6.40
2014,04,02,05,34,6.40
2014,04,02,05,35,6.40
2014,04,02,05,36,6.30
2014,04,02,05,37,6.30
2014,04,02,05,38,6.30
2014,04,02,05,39,6.30
2014,04,02,05,40,6.30
2014,04,02,05,41,6.30
2014,04,02,05,42,6.20
2014,04,02,05,43,6.20
2014,04,02,05,44,6.20
2014,04,02,05,45,6.20
2014,04,02,05,46,6.20
2014,04,02,05,47,6.10
2014,04,02,05,48,6.10
2014,04,02,05,49,6.10
2014,04,02,05,50,6.10
2014,04,02,05,51,6.00
2014,04,02,05,52,6.00
2014,04,02,05,53,5.90
2014,04,02,05,54,5.90
2014,04,02,05,55,5.90
2014,04,02,05,56,5.90
2014,04,02,05,57,5.80
2014,04,02,05,58,5.80
2014,04,02,05,59,5.80
2014,04,02,06,00,5.70
2014,04,02,06,01,5.70
2014,04,02,06,02,5.70
2014,04,02,06,03,5.60
2014,04,02,06,04,5.60
2014,04,02,06,05,5.60
2014,04,02,06,06,5.60
2014,04,02,06,07,5.50
2014,04,02,06,08,5.50
2014,04,02,06,09,5.50
2014,04,02,06,10,5.40
2014,04,02,06,11,5.40
2014,04,02,06,12,5.40
2014,04,02,06,13,5.30
2014,04,02,06,14,5.30
2014,04,02,06,15,5.30
2014,04,02,06,16,5.20
2014,04,02,06,17,5.20
2014,04,02,06,18,5.10
2014,04,02,06,19,5.10
2014,04,02,06,20,5.00
2014,04,02,06,21,4.90
2014,04,02,06,22,4.90
2014,04,02,06,23,4.80
2014,04,02,06,24,4.70
2014,04,02,06,25,4.70
2014,04,02,06,26,4.60
2014,04,02,06,27,4.60
2014,04,02,06,28,4.60
2014,04,02,06,29,4.60
2014,04,02,06,30,4.50
2014,04,02,06,31,4.50
2014,04,02,06,32,4.50
2014,04,02,06,33,4.50
2014,04,02,06,34,4.40
2014,04,02,06,35,4.40
2014,04,02,06,36,4.40
2014,04,02,06,37,4.40
2014,04,02,06,38,4.30
2014,04,02,06,39,4.30
2014,04,02,06,40,4.30
2014,04,02,06,41,4.20
2014,04,02,06,42,4.20
2014,04,02,06,43,4.20
2014,04,02,06,44,4.10
2014,04,02,06,45,4.00
2014,04,02,06,46,4.00
2014,04,02,06,47,3.90
2014,04,02,06,48,3.90
2014,04,02,06,49,3.90
2014,04,02,06,50,3.90
2014,04,02,06,51,3.90
2014,04,02,06,52,3.90
2014,04,02,06,53,4.00
2014,04,02,06,54,4.00
2014,04,02,06,55,4.00
2014,04,02,06,56,4.00
2014,04,02,06,57,4.10
2014,04,02,06,58,4.10
2014,04,02,06,59,4.00
2014,04,02,07,00,4.10
2014,04,02,07,01,4.00
2014,04,02,07,02,4.00
2014,04,02,07,03,4.00
2014,04,02,07,04,4.00
2014,04,02,07,05,3.90
2014,04,02,07,06,3.90
2014,04,02,07,07,3.90
2014,04,02,07,08,3.90
2014,04,02,07,09,3.90
2014,04,02,07,10,3.90
2014,04,02,07,11,3.90
2014,04,02,07,12,3.90
2014,04,02,07,13,3.90
2014,04,02,07,14,3.80
2014,04,02,07,15,3.80
2014,04,02,07,16,3.80
2014,04,02,07,17,3.80
2014,04,02,07,18,3.70
2014,04,02,07,19,3.70
2014,04,02,07,20,3.70
2014,04,02,07,21,3.60
2014,04,02,07,22,3.60
2014,04,02,07,23,3.60
2014,04,02,07,24,3.60
2014,04,02,07,25,3.60
2014,04,02,07,26,3.60
2014,04,02,07,27,3.60
2014,04,02,07,28,3.60
2014,04,02,07,29,3.60
2014,04,02,07,30,3.60
2014,04,02,07,31,3.60
2014,04,02,07,32,3.70
2014,04,02,07,33,3.70
2014,04,02,07,34,3.70
2014,04,02,07,35,3.70
2014,04,02,07,36,3.70
2014,04,02,07,37,3.70
2014,04,02,07,38,3.70
2014,04,02,07,39,3.70
2014,04,02,07,40,3.80
2014,04,02,07,41,3.80
2014,04,02,07,42,3.80
2014,04,02,07,43,3.80
2014,04,02,07,44,3.80
2014,04,02,07,45,3.80
2014,04,02,07,46,3.80
2014,04,02,07,47,3.80
2014,04,02,07,48,3.80
2014,04,02,07,49,3.80
2014,04,02,07,50,3.80
2014,04,02,07,51,3.80
2014,04,02,07,52,3.80
2014,04,02,07,53,3.80
2014,04,02,07,54,3.80
2014,04,02,07,55,3.90
2014,04,02,07,56,3.90
2014,04,02,07,57,3.90
2014,04,02,07,58,3.90
2014,04,02,07,59,3.90
2014,04,02,08,00,3.90
2014,04,02,08,01,3.90
2014,04,02,08,02,4.00
2014,04,02,08,03,4.00
2014,04,02,08,04,4.00
2014,04,02,08,05,4.10
2014,04,02,08,06,4.10
2014,04,02,08,07,4.10
2014,04,02,08,08,4.10
2014,04,02,08,09,4.20
2014,04,02,08,10,4.20
2014,04,02,08,11,4.20
2014,04,02,08,12,4.30
2014,04,02,08,13,4.30
2014,04,02,08,14,4.30
2014,04,02,08,15,4.40
2014,04,02,08,16,4.40
2014,04,02,08,17,4.40
2014,04,02,08,18,4.50
2014,04,02,08,19,4.60
2014,04,02,08,20,4.60
2014,04,02,08,21,4.60
2014,04,02,08,22,4.70
2014,04,02,08,23,4.70
2014,04,02,08,24,4.80
2014,04,02,08,25,4.80
2014,04,02,08,26,4.90
2014,04,02,08,27,5.00
2014,04,02,08,28,5.00
2014,04,02,08,29,5.10
2014,04,02,08,30,5.20
2014,04,02,08,31,5.20
2014,04,02,08,32,5.30
2014,04,02,08,33,5.40
2014,04,02,08,34,5.50
2014,04,02,08,35,5.60
2014,04,02,08,36,5.70
2014,04,02,08,37,5.80
2014,04,02,08,38,5.80
2014,04,02,08,39,5.90
2014,04,02,08,40,6.00
2014,04,02,08,41,6.10
2014,04,02,08,42,6.20
2014,04,02,08,43,6.30
2014,04,02,08,44,6.40
2014,04,02,08,45,6.40
2014,04,02,08,46,6.50
2014,04,02,08,47,6.60
2014,04,02,08,48,6.70
2014,04,02,08,49,6.80
2014,04,02,08,50,6.90
2014,04,02,08,51,7.00
2014,04,02,08,52,7.10
2014,04,02,08,53,7.20
2014,04,02,08,54,7.30
2014,04,02,08,55,7.30
2014,04,02,08,56,7.40
2014,04,02,08,57,7.50
2014,04,02,08,58,7.60
2014,04,02,08,59,7.70
2014,04,02,09,00,7.80
2014,04,02,09,01,7.90
2014,04,02,09,02,8.00
2014,04,02,09,03,8.10
2014,04,02,09,04,8.20
2014,04,02,09,05,8.20
2014,04,02,09,06,8.30
2014,04,02,09,07,8.40
2014,04,02,09,08,8.50
2014,04,02,09,09,8.60
2014,04,02,09,10,8.70
2014,04,02,09,11,8.80
2014,04,02,09,12,8.90
2014,04,02,09,13,9.00
2014,04,02,09,14,9.10
2014,04,02,09,15,9.20
2014,04,02,09,16,9.20
2014,04,02,09,17,9.30
2014,04,02,09,18,9.30
2014,04,02,09,19,9.30
2014,04,02,09,20,9.30
2014,04,02,09,21,9.30
2014,04,02,09,22,9.30
2014,04,02,09,23,9.20
2014,04,02,09,24,9.20
2014,04,02,09,25,9.20
2014,04,02,09,26,9.30
2014,04,02,09,27,9.30
2014,04,02,09,28,9.30
2014,04,02,09,29,9.40
2014,04,02,09,30,9.40
2014,04,02,09,31,9.50
2014,04,02,09,32,9.60
2014,04,02,09,33,9.60
2014,04,02,09,34,9.60
2014,04,02,09,35,9.60
2014,04,02,09,36,9.60
2014,04,02,09,37,9.60
2014,04,02,09,38,9.60
2014,04,02,09,39,9.60
2014,04,02,09,40,9.60
2014,04,02,09,41,9.70
2014,04,02,09,42,9.70
2014,04,02,09,43,9.70
2014,04,02,09,44,9.80
2014,04,02,09,45,9.80
2014,04,02,09,46,9.90
2014,04,02,09,47,9.90
2014,04,02,09,48,9.90
2014,04,02,09,49,9.90
2014,04,02,09,50,9.90
2014,04,02,09,51,9.90
2014,04,02,09,52,9.90
2014,04,02,09,53,9.90
2014,04,02,09,54,9.90
2014,04,02,09,55,9.90
2014,04,02,09,56,10.00
2014,04,02,09,57,10.00
2014,04,02,09,58,10.10
2014,04,02,09,59,10.10
2014,04,02,10,00,10.10
2014,04,02,10,01,10.10
2014,04,02,10,02,10.20
2014,04,02,10,03,10.20
2014,04,02,10,04,10.20
2014,04,02,10,05,10.30
2014,04,02,10,06,10.20
2014,04,02,10,07,10.20
2014,04,02,10,08,10.20
2014,04,02,10,09,10.10
2014,04,02,10,10,10.10
2014,04,02,10,11,10.10
2014,04,02,10,12,10.10
2014,04,02,10,13,10.10
2014,04,02,10,14,10.10
2014,04,02,10,15,10.10
2014,04,02,10,16,10.20
2014,04,02,10,17,10.20
2014,04,02,10,18,10.20
2014,04,02,10,19,10.20
2014,04,02,10,20,10.20
2014,04,02,10,21,10.20
2014,04,02,10,22,10.20
2014,04,02,10,23,10.20
2014,04,02,10,24,10.20
2014,04,02,10,25,10.20
2014,04,02,10,26,10.30
2014,04,02,10,27,10.30
2014,04,02,10,28,10.30
2014,04,02,10,29,10.30
2014,04,02,10,30,10.30
2014,04,02,10,31,10.30
2014,04,02,10,32,10.30
2014,04,02,10,33,10.30
2014,04,02,10,34,10.30
2014,04,02,10,35,10.40
2014,04,02,10,36,10.40
2014,04,02,10,37,10.40
2014,04,02,10,38,10.40
2014,04,02,10,39,10.40
2014,04,02,10,40,10.40
2014,04,02,10,41,10.40
2014,04,02,10,42,10.40
2014,04,02,10,43,10.50
2014,04,02,10,44,10.50
2014,04,02,10,45,10.50
2014,04,02,10,46,10.50
2014,04,02,10,47,10.50
2014,04,02,10,48,10.40
2014,04,02,10,49,10.40
2014,04,02,10,50,10.40
2014,04,02,10,51,10.50
2014,04,02,10,52,10.50
2014,04,02,10,53,10.50
2014,04,02,10,54,10.60
2014,04,02,10,55,10.60
2014,04,02,10,56,10.70
2014,04,02,10,57,10.70
2014,04,02,10,58,10.70
2014,04,02,10,59,10.60
2014,04,02,11,00,10.60
2014,04,02,11,01,10.50
2014,04,02,11,02,10.40
2014,04,02,11,03,10.40
2014,04,02,11,04,10.40
2014,04,02,11,05,10.30
2014,04,02,11,06,10.30
2014,04,02,11,07,10.30
2014,04,02,11,08,10.40
2014,04,02,11,09,10.40
2014,04,02,11,10,10.30
2014,04,02,11,11,10.30
2014,04,02,11,12,10.30
2014,04,02,11,13,10.20
2014,04,02,11,14,10.20
2014,04,02,11,15,10.20
2014,04,02,11,16,10.20
2014,04,02,11,17,10.20
2014,04,02,11,18,10.20
2014,04,02,11,19,10.20
2014,04,02,11,20,10.20
2014,04,02,11,21,10.30
2014,04,02,11,22,10.30
2014,04,02,11,23,10.30
2014,04,02,11,24,10.30
2014,04,02,11,25,10.30
2014,04,02,11,26,10.40
2014,04,02,11,27,10.40
2014,04,02,11,28,10.40
2014,04,02,11,29,10.40
2014,04,02,11,30,10.40
2014,04,02,11,31,10.40
2014,04,02,11,32,10.40
2014,04,02,11,33,10.40
2014,04,02,11,34,10.40
2014,04,02,11,35,10.40
2014,04,02,11,36,10.50
2014,04,02,11,37,10.50
2014,04,02,11,38,10.50
2014,04,02,11,39,10.60
2014,04,02,11,40,10.60
2014,04,02,11,41,10.60
2014,04,02,11,42,10.60
2014,04,02,11,43,10.60
2014,04,02,11,44,10.60
2014,04,02,11,45,10.70
2014,04,02,11,46,10.70
2014,04,02,11,47,10.70
2014,04,02,11,48,10.70
2014,04,02,11,49,10.70
2014,04,02,11,50,10.70
2014,04,02,11,51,10.70
2014,04,02,11,52,10.70
2014,04,02,11,53,10.80
2014,04,02,11,54,10.80
2014,04,02,11,55,10.80
2014,04,02,11,56,10.80
2014,04,02,11,57,10.80
2014,04,02,11,58,10.80
2014,04,02,11,59,10.80
2014,04,02,12,00,10.80
2014,04,02,12,01,10.80
2014,04,02,12,02,10.80
2014,04,02,12,03,10.80
2014,04,02,12,04,10.80
2014,04,02,12,05,10.80
2014,04,02,12,06,10.80
2014,04,02,12,07,10.80
2014,04,02,12,08,10.90
2014,04,02,12,09,10.90
2014,04,02,12,10,10.90
2014,04,02,12,11,11.00
2014,04,02,12,12,11.10
2014,04,02,12,13,11.10
2014,04,02,12,14,11.20
2014,04,02,12,15,11.20
2014,04,02,12,16,11.20
2014,04,02,12,17,11.20
2014,04,02,12,18,11.30
2014,04,02,12,19,11.30
2014,04,02,12,20,11.30
2014,04,02,12,21,11.30
2014,04,02,12,22,11.20
2014,04,02,12,23,11.20
2014,04,02,12,24,11.20
2014,04,02,12,25,11.20
2014,04,02,12,26,11.20
2014,04,02,12,27,11.30
2014,04,02,12,28,11.30
2014,04,02,12,29,11.40
2014,04,02,12,30,11.40
2014,04,02,12,31,11.50
2014,04,02,12,32,11.50
2014,04,02,12,33,11.40
2014,04,02,12,34,11.40
2014,04,02,12,35,11.40
2014,04,02,12,36,11.50
2014,04,02,12,37,11.50
2014,04,02,12,38,11.60
2014,04,02,12,39,11.60
2014,04,02,12,40,11.50
2014,04,02,12,41,11.50
2014,04,02,12,42,11.50
2014,04,02,12,43,11.50
2014,04,02,12,44,11.50
2014,04,02,12,45,11.50
2014,04,02,12,46,11.50
2014,04,02,12,47,11.50
2014,04,02,12,48,11.40
2014,04,02,12,49,11.40
2014,04,02,12,50,11.40
2014,04,02,12,51,11.40
2014,04,02,12,52,11.50
2014,04,02,12,53,11.60
2014,04,02,12,54,11.60
2014,04,02,12,55,11.60
2014,04,02,12,56,11.60
2014,04,02,12,57,11.60
2014,04,02,12,58,11.60
2014,04,02,12,59,11.60
2014,04,02,13,00,11.60
2014,04,02,13,01,11.50
2014,04,02,13,02,11.50
2014,04,02,13,03,11.40
2014,04,02,13,04,11.40
2014,04,02,13,05,11.40
2014,04,02,13,06,11.40
2014,04,02,13,07,11.40
2014,04,02,13,08,11.40
2014,04,02,13,09,11.30
2014,04,02,13,10,11.40
2014,04,02,13,11,11.40
2014,04,02,13,12,11.40
2014,04,02,13,13,11.50
2014,04,02,13,14,11.50
2014,04,02,13,15,11.40
2014,04,02,13,16,11.40
2014,04,02,13,17,11.40
2014,04,02,13,18,11.40
2014,04,02,13,19,11.40
2014,04,02,13,20,11.40
2014,04,02,13,21,11.40
2014,04,02,13,22,11.40
2014,04,02,13,23,11.40
2014,04,02,13,24,11.40
2014,04,02,13,25,11.30
2014,04,02,13,26,11.30
2014,04,02,13,27,11.30
2014,04,02,13,28,11.30
2014,04,02,13,29,11.30
2014,04,02,13,30,11.30
2014,04,02,13,31,11.30
2014,04,02,13,32,11.30
2014,04,02,13,33,11.30
2014,04,02,13,34,11.30
2014,04,02,13,35,11.30
2014,04,02,13,36,11.30
2014,04,02,13,37,11.30
2014,04,02,13,38,11.30
2014,04,02,13,39,11.30
2014,04,02,13,40,11.30
2014,04,02,13,41,11.40
2014,04,02,13,42,11.40
2014,04,02,13,43,11.30
2014,04,02,13,44,11.30
2014,04,02,13,45,11.30
2014,04,02,13,46,11.30
2014,04,02,13,47,11.30
2014,04,02,13,48,11.30
2014,04,02,13,49,11.30
2014,04,02,13,50,11.30
2014,04,02,13,51,11.30
2014,04,02,13,52,11.30
2014,04,02,13,53,11.30
2014,04,02,13,54,11.30
2014,04,02,13,55,11.30
2014,04,02,13,56,11.30
2014,04,02,13,57,11.30
2014,04,02,13,58,11.30
2014,04,02,13,59,11.30
2014,04,02,14,00,11.30
2014,04,02,14,01,11.30
2014,04,02,14,02,11.40
2014,04,02,14,03,11.50
2014,04,02,14,04,11.50
2014,04,02,14,05,11.50
2014,04,02,14,06,11.60
2014,04,02,14,07,11.60
2014,04,02,14,08,11.60
2014,04,02,14,09,11.70
2014,04,02,14,10,11.80
2014,04,02,14,11,11.90
2014,04,02,14,12,11.90
2014,04,02,14,13,11.80
2014,04,02,14,14,11.80
2014,04,02,14,15,11.80
2014,04,02,14,16,11.70
2014,04,02,14,17,11.70
2014,04,02,14,18,11.80
2014,04,02,14,19,11.80
2014,04,02,14,20,11.70
2014,04,02,14,21,11.70
2014,04,02,14,22,11.80
2014,04,02,14,23,11.80
2014,04,02,14,24,11.80
2014,04,02,14,25,11.70
2014,04,02,14,26,11.70
2014,04,02,14,27,11.70
2014,04,02,14,28,11.70
2014,04,02,14,29,11.80
2014,04,02,14,30,11.80
2014,04,02,14,31,11.90
2014,04,02,14,32,11.90
2014,04,02,14,33,11.90
2014,04,02,14,34,11.90
2014,04,02,14,35,11.90
2014,04,02,14,36,11.80
2014,04,02,14,37,11.80
2014,04,02,14,38,11.70
2014,04,02,14,39,11.70
2014,04,02,14,40,11.70
2014,04,02,14,41,11.70
2014,04,02,14,42,11.70
2014,04,02,14,43,11.70
2014,04,02,14,44,11.70
2014,04,02,14,45,11.70
2014,04,02,14,46,11.70
2014,04,02,14,47,11.70
2014,04,02,14,48,11.70
2014,04,02,14,49,11.70
2014,04,02,14,50,11.70
2014,04,02,14,51,11.60
2014,04,02,14,52,11.60
2014,04,02,14,53,11.60
2014,04,02,14,54,11.60
2014,04,02,14,55,11.60
2014,04,02,14,56,11.60
2014,04,02,14,57,11.60
2014,04,02,14,58,11.60
2014,04,02,14,59,11.70
2014,04,02,15,00,11.70
2014,04,02,15,01,11.70
2014,04,02,15,02,11.70
2014,04,02,15,03,11.60
2014,04,02,15,04,11.60
2014,04,02,15,05,11.50
2014,04,02,15,06,11.50
2014,04,02,15,07,11.50
2014,04,02,15,08,11.50
2014,04,02,15,09,11.40
2014,04,02,15,10,11.50
2014,04,02,15,11,11.50
2014,04,02,15,12,11.50
2014,04,02,15,13,11.50
2014,04,02,15,14,11.50
2014,04,02,15,15,11.50
2014,04,02,15,16,11.60
2014,04,02,15,17,11.60
2014,04,02,15,18,11.60
2014,04,02,15,19,11.60
2014,04,02,15,20,11.60
2014,04,02,15,21,11.60
2014,04,02,15,22,11.60
2014,04,02,15,23,11.60
2014,04,02,15,24,11.60
2014,04,02,15,25,11.70
2014,04,02,15,26,11.70
2014,04,02,15,27,11.70
2014,04,02,15,28,11.70
2014,04,02,15,29,11.70
2014,04,02,15,30,11.70
2014,04,02,15,31,11.70
2014,04,02,15,32,11.70
2014,04,02,15,33,11.70
2014,04,02,15,34,11.70
2014,04,02,15,35,11.70
2014,04,02,15,36,11.60
2014,04,02,15,37,11.60
2014,04,02,15,38,11.60
2014,04,02,15,39,11.60
2014,04,02,15,40,11.70
2014,04,02,15,41,11.70
2014,04,02,15,42,11.70
2014,04,02,15,43,11.70
2014,04,02,15,44,11.60
2014,04,02,15,45,11.60
2014,04,02,15,46,11.50
2014,04,02,15,47,11.50
2014,04,02,15,48,11.50
2014,04,02,15,49,11.40
2014,04,02,15,50,11.40
2014,04,02,15,51,11.40
2014,04,02,15,52,11.40
2014,04,02,15,53,11.40
2014,04,02,15,54,11.40
2014,04,02,15,55,11.40
2014,04,02,15,56,11.40
2014,04,02,15,57,11.40
2014,04,02,15,58,11.40
2014,04,02,15,59,11.50
2014,04,02,16,00,11.50
2014,04,02,16,01,11.50
2014,04,02,16,02,11.50
2014,04,02,16,03,11.40
2014,04,02,16,04,11.40
2014,04,02,16,05,11.30
2014,04,02,16,06,11.30
2014,04,02,16,07,11.30
2014,04,02,16,08,11.30
2014,04,02,16,09,11.40
2014,04,02,16,10,11.40
2014,04,02,16,11,11.40
2014,04,02,16,12,11.40
2014,04,02,16,13,11.40
2014,04,02,16,14,11.40
2014,04,02,16,15,11.40
2014,04,02,16,16,11.40
2014,04,02,16,17,11.40
2014,04,02,16,18,11.40
2014,04,02,16,19,11.40
2014,04,02,16,20,11.40
2014,04,02,16,21,11.40
2014,04,02,16,22,11.50
2014,04,02,16,23,11.50
2014,04,02,16,24,11.50
2014,04,02,16,25,11.40
2014,04,02,16,26,11.40
2014,04,02,16,27,11.40
2014,04,02,16,28,11.40
2014,04,02,16,29,11.30
2014,04,02,16,30,11.30
2014,04,02,16,31,11.30
2014,04,02,16,32,11.30
2014,04,02,16,33,11.20
2014,04,02,16,34,11.20
2014,04,02,16,35,11.20
2014,04,02,16,36,11.20
2014,04,02,16,37,11.20
2014,04,02,16,38,11.20
2014,04,02,16,39,11.20
2014,04,02,16,40,11.20
2014,04,02,16,41,11.20
2014,04,02,16,42,11.20
2014,04,02,16,43,11.20
2014,04,02,16,44,11.10
2014,04,02,16,45,11.10
2014,04,02,16,46,11.10
2014,04,02,16,47,11.10
2014,04,02,16,48,11.10
2014,04,02,16,49,11.10
2014,04,02,16,50,11.10
2014,04,02,16,51,11.10
2014,04,02,16,52,11.10
2014,04,02,16,53,11.20
2014,04,02,16,54,11.20
2014,04,02,16,55,11.20
2014,04,02,16,56,11.20
2014,04,02,16,57,11.20
2014,04,02,16,58,11.20
2014,04,02,16,59,11.20
2014,04,02,17,00,11.20
2014,04,02,17,01,11.30
2014,04,02,17,02,11.30
2014,04,02,17,03,11.30
2014,04,02,17,04,11.30
2014,04,02,17,05,11.30
2014,04,02,17,06,11.30
2014,04,02,17,07,11.30
2014,04,02,17,08,11.40
2014,04,02,17,09,11.40
2014,04,02,17,10,11.40
2014,04,02,17,11,11.40
2014,04,02,17,12,11.40
2014,04,02,17,13,11.40
2014,04,02,17,14,11.40
2014,04,02,17,15,11.50
2014,04,02,17,16,11.50
2014,04,02,17,17,11.40
2014,04,02,17,18,11.40
2014,04,02,17,19,11.40
2014,04,02,17,20,11.40
2014,04,02,17,21,11.40
2014,04,02,17,22,11.40
2014,04,02,17,23,11.40
2014,04,02,17,24,11.40
2014,04,02,17,25,11.40
2014,04,02,17,26,11.40
2014,04,02,17,27,11.40
2014,04,02,17,28,11.40
2014,04,02,17,29,11.40
2014,04,02,17,30,11.30
2014,04,02,17,31,11.30
2014,04,02,17,32,11.30
2014,04,02,17,33,11.30
2014,04,02,17,34,11.30
2014,04,02,17,35,11.30
2014,04,02,17,36,11.30
2014,04,02,17,37,11.20
2014,04,02,17,38,11.20
2014,04,02,17,39,11.20
2014,04,02,17,40,11.20
2014,04,02,17,41,11.20
2014,04,02,17,42,11.20
2014,04,02,17,43,11.20
2014,04,02,17,44,11.20
2014,04,02,17,45,11.20